Home   Weather   Arrecife   Past weeks

Flag for Spain Past Weather in Arrecife, Canary Islands, Spain — Yesterday and Last 2 Weeks

Now
68 °F

Scattered clouds.


Feels Like: 68 °F
Forecast: N/A
Wind: 12 mph from North

Location: Lanzarote / Aeropuerto

Current Time: Jan 23, 2017 at 5:32:40 pm

Latest Report: Jan 23, 2017 at 4:30 pm


Visibility: N/A

Pressure: 30.24 "Hg

Humidity: 60%

Dew Point: 54 °F

Location of ArrecifeLocation

Past Weather in Arrecife — Graph

°F

Arrecife Temperature Yesterday

Maximum temperature yesterday: 68 °F (at 12:30 pm)
Minimum temperature yesterday: 54 °F (at 7:00 am)
Average temperature yesterday: 62 °F

High & Low Weather Summary for the Past Weeks

 TemperatureHumidityPressure
High70 °F (Jan 10, 1:30 pm)88% (Jan 9, 6:00 am)30.33 "Hg (Jan 9, 6:00 am)
Low52 °F (Jan 20, 7:30 am)37% (Jan 22, 11:30 am)30.04 "Hg (Jan 18, 2:00 pm)
Average63 °F68%30.17 "Hg
* Reported Jan 8 4:00 pm — Jan 23 4:00 pm, Arrecife, Weather by CustomWeather, © 2017

Note: Actual official high and low records may vary slightly from our data, if they occured in-between our weather recording intervals... More about our weather records

Advertising

Arrecife Weather History for the Previous 24 Hours

Scroll right to see more
 ConditionsComfort  
Time TempWeatherWind HumidityBarometerVisibility
4:00 pm
Mon, Jan 23
68 °FScattered clouds.13 mph60%30.21 "HgN/A
3:30 pm68 °FScattered clouds.12 mph60%30.21 "HgN/A
3:00 pm66 °FPartly sunny.9 mph73%30.21 "HgN/A
2:30 pm68 °FScattered clouds.14 mph56%30.21 "HgN/A
2:00 pm64 °FBroken clouds.9 mph78%30.24 "HgN/A
1:30 pm63 °FBroken clouds.9 mph88%30.24 "HgN/A
1:00 pm63 °FDrizzle. Broken clouds.13 mph83%30.27 "HgN/A
12:30 pm63 °FBroken clouds.16 mph83%30.27 "HgN/A
12:00 pm64 °FBroken clouds.7 mph78%30.27 "HgN/A
11:30 am64 °FBroken clouds.12 mph73%30.30 "HgN/A
11:00 am64 °FPartly sunny.10 mph68%30.30 "HgN/A
10:30 am64 °FPartly sunny.10 mph73%30.30 "HgN/A
10:00 am63 °FPartly sunny.8 mph77%30.27 "HgN/A
9:30 am63 °FPartly sunny.9 mph73%30.27 "HgN/A
9:00 am63 °FPartly sunny.5 mph73%30.27 "HgN/A
8:30 am61 °FPartly sunny.3 mph77%30.24 "HgN/A
8:00 am61 °FPartly sunny.6 mph77%30.24 "HgN/A
7:30 am59 °FPassing clouds.5 mph77%30.24 "HgN/A
7:00 am57 °FPassing clouds.No wind77%30.24 "HgN/A
6:30 am59 °FPassing clouds.No wind72%30.24 "HgN/A
6:00 am57 °FPassing clouds.2 mph77%30.24 "HgN/A
1:00 am57 °FPassing clouds.2 mph67%30.24 "HgN/A
12:30 am57 °FPassing clouds.3 mph67%30.27 "HgN/A
12:00 am57 °FPassing clouds.7 mph67%30.27 "HgN/A
11:30 pm
Sun, Jan 22
57 °FPassing clouds.7 mph67%30.27 "HgN/A
11:00 pm59 °FPassing clouds.7 mph63%30.27 "HgN/A
10:30 pm59 °FPassing clouds.7 mph63%30.27 "HgN/A
10:00 pm59 °FPassing clouds.7 mph63%30.27 "HgN/A
9:30 pm61 °FPassing clouds.9 mph63%30.27 "HgN/A
9:00 pm61 °FPassing clouds.13 mph59%30.27 "HgN/A
8:30 pm61 °FPassing clouds.10 mph63%30.24 "HgN/A
8:00 pm61 °FPassing clouds.7 mph59%30.24 "HgN/A
7:30 pm61 °FPassing clouds.9 mph59%30.24 "HgN/A
7:00 pm63 °FPassing clouds.12 mph56%30.24 "HgN/A
6:30 pm63 °FPassing clouds.13 mph59%30.24 "HgN/A
6:00 pm63 °FPassing clouds.15 mph59%30.21 "HgN/A
5:30 pm64 °FPassing clouds.15 mph52%30.21 "HgN/A
5:00 pm64 °FScattered clouds.15 mph52%30.21 "HgN/A
Weather by CustomWeather, © 2017

See weather overviewHow to use our weather pages